Newburgh, NY

1:57 AM EDT on October 22, 2017 (GMT -0400)
Stewart International

Weather History for KSWF - May, 2013

Change the Weather History Date:

Saturday, May 25, 2013

  Actual Average Record
Temperature  
Mean Temperature 47 °F -  
Max Temperature 50 °F 68 °F 91 °F (1975)
Min Temperature 44 °F 48 °F 39 °F (1983)
Degree Days  
Heating Degree Days 18    
Moisture  
Dew Point 42 °F    
Average Humidity 83    
Maximum Humidity 93    
Minimum Humidity 71    
Precipitation  
Precipitation 0.00 in - - ()
Sea Level Pressure  
Sea Level Pressure 29.95 in    
Wind  
Wind Speed 11 mph (NW)    
Max Wind Speed 23 mph    
Max Gust Speed 34 mph    
Visibility 9 miles    
Events Rain    
Averages and records for this station are not official NWS values.
T = Trace of Precipitation, MM = Missing Value Source: NWS Daily Summary

Daily Weather History Graph

Daily Weather History Graph

Search for Another Location

Airport or City:

Trip Planner

Search our weather history database for the weather conditions in past years. The results will help you decide how hot, cold, wet, or windy it might be!

Date:

Astronomy

May. 25, 2013 Rise Set
Actual Time 5:28 AM EDT 8:18 PM EDT
Civil Twilight 4:56 AM EDT 8:51 PM EDT
Nautical Twilight 4:15 AM EDT 9:32 PM EDT
Astronomical Twilight 3:27 AM EDT 10:20 PM EDT
Moon 9:03 PM EDT (5/25) 5:53 AM EDT (5/25)
Length of Visible Light 15h 54m
Length of Day
14h 49m
Full, 100% of the Moon is Illuminated
May 25
Full
May 31
Last Quarter
Jun 8
New
Jun 16
First Quarter
Jun 23
Full

Hourly Weather History & Observations

Time (EDT) Temp. Windchill Dew Point Humidity Pressure Visibility Wind Dir Wind Speed Gust Speed Precip Events Conditions
12:45 AM 46.4 °F 42.4 °F 41.0 °F 81% 29.95 in 10.0 mi NNW 8.1 mph - N/A   Overcast
1:45 AM 46.4 °F 41.9 °F 39.2 °F 76% 29.94 in 10.0 mi NNW 9.2 mph - N/A   Overcast
2:45 AM 44.6 °F 39.7 °F 41.0 °F 87% 29.92 in 10.0 mi NNW 9.2 mph - N/A   Overcast
3:45 AM 44.6 °F 41.4 °F 41.0 °F 87% 29.92 in 4.0 mi NNW 5.8 mph - N/A   Overcast
4:45 AM 44.6 °F 41.4 °F 41.0 °F 87% 29.91 in 4.0 mi NW 5.8 mph - N/A Rain Light Rain
5:45 AM 44.6 °F 40.7 °F 42.8 °F 93% 29.92 in 3.0 mi WNW 6.9 mph - N/A Rain Light Rain
6:45 AM 44.6 °F 40.7 °F 42.8 °F 93% 29.93 in 3.0 mi WNW 6.9 mph - N/A Rain Light Rain
7:50 AM 44.6 °F 40.7 °F 42.8 °F 93% 29.94 in 3.0 mi WNW 6.9 mph - N/A Rain Light Rain
8:45 AM 46.4 °F 41.1 °F 44.6 °F 93% 29.93 in 10.0 mi WNW 11.5 mph - N/A   Mostly Cloudy
9:45 AM 46.4 °F 41.1 °F 44.6 °F 93% 29.93 in 10.0 mi WNW 11.5 mph - N/A   Overcast
10:50 AM 48.2 °F - 44.6 °F 87% 29.92 in 10.0 mi NW 11.5 mph - N/A   Overcast
11:45 AM 48.2 °F - 44.6 °F 87% 29.93 in 6.0 mi NW 11.5 mph 23.0 mph N/A Rain Light Rain
12:45 PM 50.0 °F - 44.6 °F 82% 29.92 in 10.0 mi NW 17.3 mph 23.0 mph N/A   Overcast
1:45 PM 48.2 °F - 44.6 °F 87% 29.93 in 6.0 mi NW 23.0 mph 34.5 mph N/A Rain Light Rain Showers
3:45 PM 50.0 °F - 41.0 °F 71% 29.95 in 10.0 mi NNW 17.3 mph 34.5 mph N/A   Overcast
4:45 PM 50.0 °F - 41.0 °F 71% 29.95 in 10.0 mi NNW 17.3 mph 28.8 mph N/A   Overcast
6:50 PM 48.2 °F - 39.2 °F 71% 29.97 in 15.0 mi NW 23.0 mph 32.2 mph N/A   Mostly Cloudy
7:50 PM 48.2 °F - 39.2 °F 71% 29.98 in 15.0 mi NW 17.3 mph 28.8 mph N/A   Mostly Cloudy
8:50 PM 46.4 °F 39.5 °F 41.0 °F 81% 30.00 in 10.0 mi NW 17.3 mph 25.3 mph N/A   Mostly Cloudy
9:50 PM 46.4 °F 39.8 °F 41.0 °F 81% 29.99 in 10.0 mi WNW 16.1 mph 23.0 mph N/A   Mostly Cloudy
10:45 PM 44.6 °F 38.1 °F 39.2 °F 81% 29.99 in 10.0 mi WNW 13.8 mph - N/A   Scattered Clouds
11:45 PM 44.6 °F 38.1 °F 39.2 °F 81% 29.97 in 10.0 mi WNW 13.8 mph - N/A   Scattered Clouds